User: anonymous   Login
Location: Owatonna
(44.0840°N, 93.2260°W)
Time: 15:17:46
(UTC-05:00)
Language:

Cosmos 1500 Rocket - Orbit

View from above orbital plane
View from above orbital plane
View from above satellite
View from above satellite

Ground track
Ground track

The orbit data is extracted from the following two-line orbital elements,

1 14373U 83099B   15184.46230072  .00000179  00000-0  18738-4 0  9998
2 14373 082.5396 192.3851 0021832 067.0321 094.3700 14.83468961714901
Epoch (UTC): 03 July 2015 11:05:42
Eccentricity: 0.0021832
inclination: 82.5396°
perigee height: 603 km
apogee height: 633 km
right ascension of ascending node: 192.3851°
argument of perigee: 67.0321°
revolutions per day: 14.83468961
mean anomaly at epoch: 94.3700°
orbit number at epoch: 71490

The dashed part of the orbit path shows where the satellite is in the earth's shadow,  

DLR